Location: *
(43.4667°N, 11.6833°E)
Time: 12:35:34
(UTC+00:00)

SPOT 1/Viking Rocket - Pass Details

Date: 19 July 2019
Orbit: 778 x 794 km, 98.5° (Epoch: 20 August)

Event Time Altitude Azimuth Distance (km) Brightness Sun altitude
Exits shadow 19:49:23 12° 126° (SE) 2,179 5.2 -9.7°
Maximum altitude 19:53:29 33° 67° (ENE) 1,305 4.5 -10.3°
Drops below altitude 10° 19:58:06 10° 4° (N) 2,361 6.6 -10.9°
Sets 20:00:37 0° 356° (N) 3,297 7.6 -11.2°
